DW4248 Weather Reports


Display with metric or nautical units.
time (UTC)temp
F
wind
direction
speed
MPH
gust
MPH
rain 1hr
in
rain 24hr
in
rain mn
in
humidity
%
barometer
mb
20260905133603 83 327 0.0 2.0 0.00 0.00 0.00 76 1014.0
20260905132703 83 324 0.0 1.0 0.00 0.00 0.00 77 1014.0
20260905131803 82 0 0.0 1.0 0.00 0.00 0.00 77 1013.9
20260905130903 82 0 0.0 0.0 0.00 0.00 0.00 79 1013.9
20260905130004 81 0 0.0 0.0 0.00 0.00 0.00 78 1013.7
20260905125403 81 0 0.0 0.0 0.00 0.00 0.00 79 1013.7
20260905124503 81 0 0.0 0.0 0.00 0.00 0.00 79 1013.6
20260905123603 80 0 0.0 0.0 0.00 0.00 0.00 80 1013.6
20260905122703 80 0 0.0 0.0 0.00 0.00 0.00 80 1013.5
20260905121803 80 0 0.0 1.0 0.00 0.00 0.00 81 1013.5
20260905120903 80 0 0.0 1.0 0.00 0.00 0.00 82 1013.4
20260905120003 80 0 0.0 0.0 0.00 0.00 0.00 82 1013.3
20260905115403 79 0 0.0 0.0 0.00 0.00 0.00 81 1013.3
20260905114503 79 0 0.0 1.0 0.00 0.00 0.00 81 1013.2
20260905113603 79 0 0.0 1.0 0.00 0.00 0.00 82 1013.2
20260905112703 80 0 0.0 0.0 0.00 0.00 0.00 82 1013.2
20260905111803 80 0 0.0 0.0 0.00 0.00 0.00 81 1013.0
20260905110903 80 0 0.0 0.0 0.00 0.00 0.00 80 1012.9
20260905110003 80 218 0.0 1.0 0.00 0.00 0.00 80 1012.8
20260905105403 80 219 0.0 1.0 0.00 0.00 0.00 80 1012.9
20260905104503 80 0 0.0 1.0 0.00 0.00 0.00 80 1013.0
20260905103603 80 248 0.0 1.0 0.00 0.00 0.00 81 1013.0
20260905102703 80 0 0.0 0.0 0.00 0.00 0.00 81 1013.0
20260905101803 79 0 0.0 0.0 0.00 0.00 0.00 83 1013.1
20260905100903 79 0 0.0 0.0 0.00 0.00 0.00 84 1013.1
20260905100003 79 0 0.0 0.0 0.00 0.00 0.00 84 1013.1
20260905095403 79 0 0.0 0.0 0.00 0.00 0.00 83 1013.0
20260905094503 79 0 0.0 0.0 0.00 0.00 0.00 83 1012.9
20260905093603 80 0 0.0 0.0 0.00 0.00 0.00 83 1012.9
20260905092705 80 0 0.0 0.0 0.00 0.00 0.00 82 1013.0
20260905091803 80 0 0.0 0.0 0.00 0.00 0.00 81 1013.0
20260905090903 81 0 0.0 0.0 0.00 0.00 0.00 81 1013.0
20260905090003 81 0 0.0 0.0 0.00 0.00 0.00 80 1013.1
20260905085403 81 0 0.0 0.0 0.00 0.00 0.00 79 1013.1
20260905084503 82 0 0.0 0.0 0.00 0.00 0.00 77 1013.1
20260905083624 82 0 0.0 0.0 0.00 0.00 0.00 77 1013.1
20260905082724 82 0 0.0 0.0 0.00 0.00 0.00 76 1013.1
20260905081824 83 0 0.0 0.0 0.00 0.00 0.00 76 1013.3
20260905080924 83 0 0.0 0.0 0.00 0.00 0.00 75 1013.3
20260905080024 83 253 0.0 1.0 0.00 0.00 0.00 75 1013.4
20260905075403 83 0 0.0 0.0 0.00 0.00 0.00 76 1013.4
20260905074503 83 0 0.0 0.0 0.00 0.00 0.00 74 1013.4
20260905073603 83 0 0.0 0.0 0.00 0.00 0.00 74 1013.4
20260905072703 83 0 0.0 0.0 0.00 0.00 0.00 74 1013.5
20260905071803 84 138 0.0 1.0 0.00 0.00 0.00 74 1013.5
20260905070924 83 137 0.0 1.0 0.00 0.00 0.00 74 1013.4
20260905070024 82 124 0.0 1.0 0.00 0.00 0.00 76 1013.5
20260905065424 82 0 0.0 0.0 0.00 0.00 0.00 77 1013.5
20260905064524 82 0 0.0 0.0 0.00 0.00 0.00 77 1013.4
20260905063624 83 0 0.0 0.0 0.00 0.00 0.00 76 1013.5
20260905062703 83 0 0.0 0.0 0.00 0.00 0.00 76 1013.6
20260905061803 83 0 0.0 0.0 0.00 0.00 0.00 76 1013.5
20260905060903 83 0 0.0 0.0 0.00 0.00 0.00 74 1013.5
20260905060003 84 0 0.0 0.0 0.00 0.00 0.00 74 1013.6
20260905055403 84 0 0.0 0.0 0.00 0.00 0.00 74 1013.6
20260905054503 84 0 0.0 1.0 0.00 0.00 0.00 72 1013.6
20260905053603 84 117 0.0 1.0 0.00 0.00 0.00 72 1013.6
20260905052703 83 126 0.0 1.0 0.00 0.00 0.00 74 1013.6
20260905051803 83 0 0.0 0.0 0.00 0.00 0.00 76 1013.6
20260905050903 83 0 0.0 0.0 0.00 0.00 0.00 75 1013.6
20260905050005 84 0 0.0 0.0 0.00 0.00 0.00 75 1013.6
20260905045403 84 0 0.0 0.0 0.00 0.00 0.00 75 1013.6
20260905044503 84 138 0.0 1.0 0.00 0.00 0.00 73 1013.5
20260905043603 85 0 0.0 0.0 0.00 0.00 0.00 72 1013.5
20260905042703 85 0 0.0 0.0 0.00 0.00 0.00 72 1013.5
20260905041803 85 0 0.0 0.0 0.00 0.00 0.00 72 1013.5
20260905040903 85 0 0.0 0.0 0.00 0.00 0.00 72 1013.4
20260905040003 85 135 0.0 1.0 0.00 0.00 0.00 73 1013.4
20260905035403 84 131 0.0 1.0 0.00 0.00 0.00 74 1013.5
20260905034503 84 0 0.0 0.0 0.00 0.00 0.00 76 1013.5
20260905033603 84 0 0.0 0.0 0.00 0.00 0.00 75 1013.5
20260905032703 84 0 0.0 0.0 0.00 0.00 0.00 73 1013.5
20260905031803 84 0 0.0 0.0 0.00 0.00 0.00 73 1013.5
20260905030903 85 0 0.0 0.0 0.00 0.00 0.00 73 1013.5
20260905030004 85 0 0.0 0.0 0.00 0.00 0.00 72 1013.5
20260905025403 85 0 0.0 0.0 0.00 0.00 0.00 71 1013.5
20260905024503 85 0 0.0 0.0 0.00 0.00 0.00 71 1013.4
20260905023603 86 0 0.0 0.0 0.00 0.00 0.00 70 1013.3
20260905022703 86 0 0.0 0.0 0.00 0.00 0.00 70 1013.2
20260905021803 86 0 0.0 0.0 0.00 0.00 0.00 69 1013.2
20260905020903 87 0 0.0 0.0 0.00 0.00 0.00 67 1013.1
20260905020003 87 0 0.0 0.0 0.00 0.00 0.00 67 1012.9
20260905015403 87 0 0.0 0.0 0.00 0.00 0.00 67 1012.9
20260905014503 88 0 0.0 0.0 0.00 0.00 0.00 66 1012.8
20260905013603 88 0 0.0 0.0 0.00 0.00 0.00 65 1012.7
20260905012703 88 0 0.0 0.0 0.00 0.00 0.00 65 1012.7
20260905011803 89 0 0.0 0.0 0.00 0.00 0.00 63 1012.5
20260905010903 89 0 0.0 0.0 0.00 0.00 0.00 62 1012.5
20260905010003 90 0 0.0 0.0 0.00 0.00 0.00 61 1012.5
20260905005403 90 0 0.0 0.0 0.00 0.00 0.00 60 1012.4
20260905004524 91 0 0.0 0.0 0.00 0.00 0.00 59 1012.5
20260905003624 92 0 0.0 0.0 0.00 0.00 0.00 57 1012.5
20260905002724 93 0 0.0 0.0 0.00 0.00 0.00 56 1012.4
20260905001824 93 350 0.0 1.0 0.00 0.00 0.00 55 1012.4
20260905000924 94 350 0.0 1.0 0.00 0.00 0.00 55 1012.4
20260905000003 95 350 0.0 1.0 0.00 0.00 0.00 53 1012.4
20260904235403 95 352 0.0 2.0 0.00 0.00 0.00 51 1012.4
20260904234503 96 329 1.0 2.0 0.00 0.00 0.00 50 1012.3
20260904233603 96 337 0.0 2.0 0.00 0.00 0.00 51 1012.2
20260904232703 96 331 0.0 1.0 0.00 0.00 0.00 48 1012.2
20260904231803 97 323 1.0 3.0 0.00 0.00 0.00 47 1012.2
20260904230903 97 338 1.0 3.0 0.00 0.00 0.00 45 1012.2
20260904230003 98 323 0.0 4.0 0.00 0.00 0.00 44 1012.2
20260904225403 98 328 0.0 4.0 0.00 0.00 0.00 46 1012.1
20260904224503 98 323 0.0 3.0 0.00 0.00 0.00 44 1012.2
20260904223603 98 339 2.0 5.0 0.00 0.00 0.00 43 1012.2
20260904222703 98 334 2.0 5.0 0.00 0.00 0.00 44 1012.2
20260904221803 98 327 0.0 3.0 0.00 0.00 0.00 41 1012.3
20260904220903 98 336 1.0 4.0 0.00 0.00 0.00 42 1012.3
20260904220003 99 257 1.0 4.0 0.00 0.00 0.00 43 1012.4
20260904215403 98 340 1.0 4.0 0.00 0.00 0.00 42 1012.5
20260904214503 98 338 2.0 8.0 0.00 0.00 0.00 41 1012.6
20260904213603 98 338 2.0 8.0 0.00 0.00 0.00 41 1012.7
20260904212703 99 303 1.0 3.0 0.00 0.00 0.00 41 1012.8
20260904211803 99 320 1.0 7.0 0.00 0.00 0.00 43 1012.9
20260904210903 99 336 1.0 5.0 0.00 0.00 0.00 41 1013.0
20260904210004 100 335 1.0 5.0 0.00 0.00 0.00 40 1013.1
20260904205403 100 108 0.0 2.0 0.00 0.00 0.00 42 1013.2
20260904204503 101 144 0.0 2.0 0.00 0.00 0.00 41 1013.3
20260904203603 100 139 1.0 3.0 0.00 0.00 0.00 41 1013.4
20260904202703 100 177 2.0 4.0 0.00 0.00 0.00 41 1013.6
20260904201803 99 131 1.0 6.0 0.00 0.00 0.00 43 1013.6
20260904200903 98 340 2.0 7.0 0.00 0.00 0.00 44 1013.7
20260904200003 99 339 2.0 9.0 0.00 0.00 0.00 46 1013.8
20260904195403 99 344 1.0 9.0 0.00 0.00 0.00 42 1013.9
20260904194524 99 335 1.0 6.0 0.00 0.00 0.00 43 1014.1
20260904193624 99 179 0.0 3.0 0.00 0.00 0.00 45 1014.2
20260904192724 99 312 1.0 3.0 0.00 0.00 0.00 43 1014.3
20260904191824 99 330 1.0 8.0 0.00 0.00 0.00 44 1014.3
20260904190924 99 129 1.0 3.0 0.00 0.00 0.00 44 1014.4
20260904190003 98 154 0.0 3.0 0.00 0.00 0.00 46 1014.4
20260904185403 99 146 1.0 3.0 0.00 0.00 0.00 45 1014.5
20260904184503 100 159 1.0 4.0 0.00 0.00 0.00 44 1014.6
20260904183603 100 140 1.0 4.0 0.00 0.00 0.00 44 1014.6
20260904182703 99 167 2.0 7.0 0.00 0.00 0.00 47 1014.7
20260904181824 97 333 1.0 6.0 0.00 0.00 0.00 49 1014.8
20260904180924 98 334 2.0 5.0 0.00 0.00 0.00 48 1014.9
20260904180025 98 328 1.0 5.0 0.00 0.00 0.00 48 1014.8
20260904175424 98 319 0.0 3.0 0.00 0.00 0.00 49 1014.9
20260904174525 97 154 1.0 3.0 0.00 0.00 0.00 53 1015.0
20260904173603 95 333 2.0 8.0 0.00 0.00 0.00 53 1015.1
20260904172703 95 342 2.0 8.0 0.00 0.00 0.00 53 1015.2
20260904171803 95 342 2.0 6.0 0.00 0.00 0.00 53 1015.3
20260904170903 94 338 1.0 4.0 0.00 0.00 0.00 55 1015.4
20260904170004 94 187 1.0 4.0 0.00 0.00 0.00 56 1015.5
20260904165403 94 309 1.0 5.0 0.00 0.00 0.00 56 1015.5
20260904164503 93 321 1.0 6.0 0.00 0.00 0.00 57 1015.6
20260904163603 93 268 1.0 4.0 0.00 0.00 0.00 57 1015.7
20260904162703 92 278 1.0 4.0 0.00 0.00 0.00 60 1015.6
20260904161803 92 336 2.0 9.0 0.00 0.00 0.00 60 1015.6
20260904160904 92 201 1.0 4.0 0.00 0.00 0.00 59 1015.7
20260904160003 91 325 2.0 6.0 0.00 0.00 0.00 59 1015.7
20260904155403 91 341 2.0 7.0 0.00 0.00 0.00 58 1015.7
20260904154503 91 158 1.0 4.0 0.00 0.00 0.00 59 1015.7
20260904153603 91 29 1.0 5.0 0.00 0.00 0.00 62 1015.6
20260904152703 90 329 1.0 8.0 0.00 0.00 0.00 61 1015.6
20260904151803 90 344 2.0 8.0 0.00 0.00 0.00 62 1015.6
20260904150903 90 116 1.0 6.0 0.00 0.00 0.00 62 1015.5
20260904150004 89 333 1.0 4.0 0.00 0.00 0.00 63 1015.4
20260904145403 89 327 2.0 6.0 0.00 0.00 0.00 63 1015.4
20260904144503 88 329 2.0 5.0 0.00 0.00 0.00 64 1015.4
20260904143603 88 218 1.0 6.0 0.00 0.00 0.00 64 1015.3
20260904142703 88 164 1.0 5.0 0.00 0.00 0.00 67 1015.2
20260904141803 87 206 0.0 3.0 0.00 0.00 0.00 67 1015.2
20260904140903 86 186 1.0 5.0 0.00 0.00 0.00 69 1015.3
20260904140003 86 198 0.0 6.0 0.00 0.00 0.00 69 1015.3
20260904135403 85 223 0.0 2.0 0.00 0.00 0.00 71 1015.3
20260904134503 84 139 0.0 2.0 0.00 0.00 0.00 72 1015.4